| time (UTC) | temp F | wind direction | speed knots | gust knots | rain 1hr in | rain 24hr in | rain mn in | humidity % | barometer mb |
| 20260504050008 | 84 | 276 | 5.2 | 13.0 | 0.00 | 0.16 | 0.16 | 61 | |
| 20260504044527 | 83 | 231 | 7.0 | 14.8 | 0.00 | 0.16 | 0.16 | 59 | |
| 20260504043004 | 83 | 217 | 6.1 | 13.0 | 0.00 | 0.16 | 0.16 | 58 | |
| 20260504041545 | 83 | 246 | 7.8 | 13.0 | 0.00 | 0.16 | 0.16 | 58 | |
| 20260504040023 | 83 | 68 | 7.0 | 7.0 | 0.00 | 0.16 | 0.16 | 59 | |
| 20260504034520 | 83 | 40 | 3.5 | 8.7 | 0.00 | 0.16 | 0.16 | 62 | |
| 20260504033039 | 83 | 239 | 4.3 | 8.7 | 0.00 | 0.16 | 0.16 | 58 | |
| 20260504031517 | 81 | 140 | 3.5 | 7.8 | 0.00 | 0.16 | 0.16 | 61 | |
| 20260504030018 | 80 | 182 | 4.3 | 8.7 | 0.00 | 0.16 | 0.16 | 59 | |
| 20260504024540 | 78 | 172 | 4.3 | 7.8 | 0.00 | 0.16 | 0.16 | 68 | |
| 20260504023040 | 77 | 232 | 3.5 | 7.0 | 0.01 | 0.62 | 0.62 | 70 | |
| 20260504021519 | 76 | 137 | 5.2 | 10.4 | 0.01 | 0.62 | 0.16 | 73 | |
| 20260504020015 | 75 | 49 | 3.5 | 8.7 | 0.01 | 0.62 | 0.16 | 76 | |
| 20260504014534 | 74 | 182 | 7.0 | 8.7 | 0.01 | 0.62 | 0.16 | 79 | |
| 20260504013013 | 74 | 194 | 7.0 | 7.8 | 0.12 | 5.70 | 5.24 | 79 | |
| 20260504011513 | 73 | 163 | 1.7 | 6.1 | 0.12 | 5.69 | 0.15 | 80 | |
| 20260504010036 | 72 | 335 | 2.6 | 11.3 | 0.04 | 5.61 | 0.07 | 82 | |
| 20260504004537 | 71 | 0 | 1.7 | 3.5 | 0.01 | 5.58 | 0.04 | 85 | |
| 20260504003015 | 71 | 130 | 1.7 | 2.6 | 0.03 | 1.32 | 7.75 | 85 | |
| 20260504001517 | 71 | 342 | 0.0 | 2.6 | 0.03 | 1.32 | 0.03 | 83 | |
| 20260504000040 | 72 | 3 | 0.9 | 5.2 | 0.03 | 1.32 | 0.03 | 80 | |
| 20260503234539 | 73 | 142 | 5.2 | 7.0 | 0.03 | 1.32 | 0.03 | 76 | |
| 20260503233014 | 72 | 197 | 3.5 | 5.2 | 0.00 | 2.08 | 7.55 | 81 | |
| 20260503231515 | 69 | 332 | 0.9 | 3.5 | 0.00 | 2.08 | 0.00 | 87 | |
| 20260503230037 | 69 | 78 | 0.0 | 2.6 | 0.00 | 2.08 | 0.00 | 86 | |
| 20260503224512 | 69 | 78 | 0.0 | 0.9 | 0.00 | 2.08 | 0.00 | 84 | |
| 20260503223012 | 70 | 79 | 0.9 | 1.7 | 0.00 | 2.50 | 4.27 | 81 | |
| 20260503221536 | 70 | 79 | 0.9 | 0.9 | 0.00 | 2.50 | 0.00 | 82 | |
| 20260503220035 | 70 | 79 | 0.0 | 1.7 | 0.00 | 2.50 | 0.00 | 79 | |
| 20260503214515 | 70 | 79 | 0.9 | 2.6 | 0.00 | 2.50 | 0.00 | 77 | |
| 20260503213011 | 70 | 81 | 0.0 | 0.9 | 0.00 | 2.50 | 0.00 | 79 | |
| 20260503211530 | 70 | 81 | 0.0 | 1.7 | 0.00 | 2.50 | 0.00 | 77 | |
| 20260503210007 | 70 | 81 | 0.0 | 1.7 | 0.00 | 2.50 | 0.00 | 76 | |
| 20260503204507 | 71 | 81 | 0.9 | 2.6 | 0.00 | 2.50 | 0.00 | 75 | |
| 20260503203027 | 71 | 38 | 0.0 | 2.6 | 0.00 | 2.50 | 0.00 | 73 | |
| 20260503201523 | 71 | 65 | 0.0 | 1.7 | 0.00 | 2.50 | 0.00 | 72 | |
| 20260503200042 | 71 | 65 | 0.0 | 1.7 | 0.00 | 2.50 | 0.00 | 68 | |
| 20260503194519 | 71 | 65 | 0.0 | 0.9 | 0.00 | 2.50 | 0.00 | 68 | |
| 20260503193019 | 71 | 65 | 0.0 | 0.9 | 0.00 | 2.50 | 0.00 | 68 | |
| 20260503191543 | 72 | 75 | 0.0 | 0.9 | 0.00 | 2.50 | 0.00 | 69 | |
| 20260503190044 | 72 | 43 | 0.0 | 0.0 | 0.00 | 2.50 | 0.00 | 64 | |
| 20260503184523 | 73 | 43 | 0.0 | 1.7 | 0.00 | 2.50 | 0.00 | 61 | |
| 20260503183020 | 73 | 43 | 0.0 | 0.9 | 0.00 | 2.50 | 0.00 | 64 | |
| 20260503181542 | 73 | 48 | 0.0 | 1.7 | 0.00 | 2.50 | 2.50 | 64 | |
| 20260503174523 | 74 | 67 | 0.9 | 1.7 | 0.00 | 2.50 | 2.50 | 63 | |
| 20260503173022 | 74 | 107 | 0.0 | 1.7 | 0.00 | 2.50 | 2.50 | 61 | |
| 20260503171541 | 75 | 107 | 0.0 | 1.7 | 0.00 | 2.50 | 2.50 | 63 | |
| 20260503081521 | 92 | 8 | 7.8 | 12.2 | 0.00 | 2.50 | 2.50 | 45 | |
| 20260503071537 | 89 | 213 | 7.0 | 14.8 | 0.00 | 2.50 | 2.50 | 53 |